Weather History for Madison, MN

Change the Weather History Date:

Thursday, August 8, 2013

  Actual Average (KAQP) Record (KAQP)
Temperature  
Mean Temperature 65 °F -  
Max Temperature 73 °F 77 °F 95 °F (2001)
Min Temperature 57 °F 55 °F 35 °F (2003)
Growing Degree Days 15 (Base 50)    
Moisture  
Dew Point 56 °F    
Average Humidity 79    
Maximum Humidity 94    
Minimum Humidity 53    
Precipitation  
Precipitation 0.50 in - - ()
Sea Level Pressure  
Sea Level Pressure 30.02 in    
Wind  
Wind Speed 4 mph (South)    
Max Wind Speed 12 mph    
Max Gust Speed 16 mph    
Visibility 10 miles    
Events Rain , Thunderstorm    
Averages and records for this station are not official NWS values.
T = Trace of Precipitation, MM = Missing Value Source: NWS Daily Summary

Daily Weather History Graph

Daily Weather History Graph

Search for Another Location

Airport:

Trip Planner

Search our weather history database for the weather conditions in past years. The results will help you decide how hot, cold, wet, or windy it might be!

Date:

Astronomy

Aug. 08, 2013 Rise Set
Actual Time 6:18 AM CDT 8:41 PM CDT
Civil Twilight 5:45 AM CDT 9:13 PM CDT
Nautical Twilight 5:04 AM CDT 9:54 PM CDT
Astronomical Twilight 4:18 AM CDT 10:40 PM CDT
Moon 8:14 AM CDT (8/8) 9:11 PM CDT (8/8)
Length of Visible Light 15h 28m
Length of Day
14h 22m
Waxing Crescent, 3% of the Moon is Illuminated
Aug 8
Waxing Crescent
Aug 14
First Quarter
Aug 20
Full
Aug 28
Last Quarter
Sep 5
New

Hourly Weather History & Observations

Time (CDT) Temp. Dew Point Humidity Pressure Visibility Wind Dir Wind Speed Gust Speed Precip Events Conditions
12:13 AM 57.2 °F 51.8 °F 82% 30.02 in 10.0 mi SSE 4.6 mph - N/A   Clear
12:33 AM 57.2 °F 51.8 °F 82% 30.02 in 10.0 mi SSE 3.5 mph - N/A   Scattered Clouds
12:54 AM 57.2 °F 53.6 °F 88% 30.02 in 10.0 mi Calm Calm - N/A   Overcast
1:13 AM 57.2 °F 53.6 °F 88% 30.02 in 10.0 mi Calm Calm - N/A   Scattered Clouds
1:33 AM 57.2 °F 53.6 °F 88% 30.02 in 10.0 mi Calm Calm - N/A   Mostly Cloudy
1:54 AM 59.0 °F 53.6 °F 82% 30.02 in 10.0 mi Calm Calm - N/A   Mostly Cloudy
2:13 AM 59.0 °F 53.6 °F 82% 30.02 in 10.0 mi Calm Calm - N/A   Overcast
2:33 AM 59.0 °F 53.6 °F 82% 30.02 in 10.0 mi Calm Calm - N/A   Overcast
2:54 AM 59.0 °F 55.4 °F 88% 30.02 in 10.0 mi West 3.5 mph - N/A Rain Light Rain
3:13 AM 59.0 °F 55.4 °F 88% 30.01 in 10.0 mi South 5.8 mph - 0.02 in Rain Light Rain
3:33 AM 59.0 °F 53.6 °F 82% 30.01 in 10.0 mi South 6.9 mph - 0.02 in   Mostly Cloudy
3:54 AM 59.0 °F 53.6 °F 82% 30.00 in 10.0 mi South 5.8 mph - 0.02 in   Overcast
4:13 AM 59.0 °F 53.6 °F 82% 30.00 in 10.0 mi SSE 5.8 mph - 0.02 in Rain Light Rain
4:33 AM 59.0 °F 55.4 °F 88% 30.00 in 10.0 mi SSW 3.5 mph - 0.06 in Rain , Thunderstorm Rain
4:54 AM 57.2 °F 55.4 °F 94% 30.01 in 10.0 mi SSW 8.1 mph - 0.08 in Rain Light Rain
5:13 AM 57.2 °F 55.4 °F 94% 30.01 in 7.0 mi South 4.6 mph - 0.08 in Rain Heavy Rain
5:33 AM 57.2 °F 55.4 °F 94% 29.98 in 10.0 mi SSE 6.9 mph - 0.16 in Rain Rain
5:54 AM 57.2 °F 55.4 °F 94% 30.01 in 7.0 mi Calm Calm - 0.21 in Rain Heavy Rain
6:13 AM 57.2 °F 55.4 °F 94% 30.01 in 10.0 mi South 5.8 mph - 0.05 in Rain Rain
6:33 AM 57.2 °F 55.4 °F 94% 30.02 in 10.0 mi South 5.8 mph - 0.10 in Rain Rain
6:54 AM 57.2 °F 55.4 °F 94% 30.02 in 10.0 mi South 8.1 mph - 0.13 in Rain Light Rain
7:13 AM 57.2 °F 55.4 °F 94% 30.02 in 10.0 mi South 10.4 mph - 0.01 in Rain Light Rain
7:33 AM 57.2 °F 55.4 °F 94% 30.02 in 10.0 mi South 11.5 mph - 0.01 in Rain Light Rain
7:54 AM 57.2 °F 55.4 °F 94% 30.03 in 10.0 mi South 8.1 mph - 0.01 in   Overcast
8:13 AM 59.0 °F 55.4 °F 88% 30.03 in 10.0 mi South 8.1 mph - N/A   Mostly Cloudy
8:33 AM 59.0 °F 55.4 °F 88% 30.03 in 10.0 mi South 11.5 mph 16.1 mph N/A   Mostly Cloudy
8:54 AM 59.0 °F 55.4 °F 88% 30.04 in 10.0 mi South 11.5 mph - N/A   Mostly Cloudy
9:13 AM 60.8 °F 55.4 °F 82% 30.04 in 10.0 mi South 10.4 mph - N/A   Mostly Cloudy
9:34 AM 60.8 °F 55.4 °F 82% 30.05 in 10.0 mi South 10.4 mph - 0.01 in Rain Light Rain
9:54 AM 60.8 °F 55.4 °F 82% 30.05 in 10.0 mi SSE 5.8 mph - 0.05 in Rain Light Rain
10:13 AM 62.6 °F 57.2 °F 82% 30.05 in 10.0 mi SE 6.9 mph - N/A   Mostly Cloudy
10:34 AM 64.4 °F 57.2 °F 77% 30.04 in 10.0 mi SE 8.1 mph - N/A   Mostly Cloudy
10:54 AM 64.4 °F 57.2 °F 77% 30.04 in 10.0 mi SSE 9.2 mph - N/A   Mostly Cloudy
11:13 AM 66.2 °F 57.2 °F 73% 30.04 in 10.0 mi South 6.9 mph - N/A   Scattered Clouds
11:34 AM 66.2 °F 57.2 °F 73% 30.04 in 10.0 mi South 8.1 mph - N/A   Clear
11:53 AM 66.2 °F 57.2 °F 73% 30.04 in 10.0 mi South 6.9 mph - N/A   Scattered Clouds
12:13 PM 66.2 °F 57.2 °F 73% 30.03 in 10.0 mi South 5.8 mph - N/A   Scattered Clouds
12:33 PM 66.2 °F 57.2 °F 73% 30.03 in 10.0 mi SSW 6.9 mph - N/A   Clear
12:53 PM 66.2 °F 57.2 °F 73% 30.03 in 10.0 mi SSW 4.6 mph - N/A   Clear
1:14 PM 66.2 °F 57.2 °F 73% 30.03 in 10.0 mi SSE 4.6 mph - N/A   Scattered Clouds
1:33 PM 68.0 °F 57.2 °F 68% 30.03 in 10.0 mi Calm Calm - N/A   Scattered Clouds
1:53 PM 69.8 °F 57.2 °F 64% 30.03 in 10.0 mi South 5.8 mph - N/A   Clear
2:14 PM 69.8 °F 57.2 °F 64% 30.02 in 10.0 mi Calm Calm - N/A   Clear
2:33 PM 69.8 °F 57.2 °F 64% 30.02 in 10.0 mi Calm Calm - N/A   Clear
2:53 PM 69.8 °F 57.2 °F 64% 30.02 in 10.0 mi Calm Calm - N/A   Scattered Clouds
3:14 PM 69.8 °F 57.2 °F 64% 30.02 in 10.0 mi Calm Calm - N/A   Scattered Clouds
3:34 PM 69.8 °F 57.2 °F 64% 30.02 in 10.0 mi Calm Calm - N/A   Scattered Clouds
3:53 PM 71.6 °F 57.2 °F 60% 30.01 in 10.0 mi Calm Calm - N/A   Scattered Clouds
4:14 PM 71.6 °F 57.2 °F 60% 30.01 in 10.0 mi SE 4.6 mph - N/A   Scattered Clouds
4:34 PM 71.6 °F 57.2 °F 60% 30.00 in 10.0 mi South 3.5 mph - N/A   Scattered Clouds
4:53 PM 71.6 °F 57.2 °F 60% 30.00 in 10.0 mi ESE 3.5 mph - N/A   Scattered Clouds
5:14 PM 71.6 °F 55.4 °F 57% 30.01 in 10.0 mi Calm Calm - N/A   Clear
5:34 PM 71.6 °F 55.4 °F 57% 30.01 in 10.0 mi Calm Calm - N/A   Clear
5:53 PM 73.4 °F 55.4 °F 53% 30.01 in 10.0 mi Calm Calm - N/A   Clear
6:14 PM 71.6 °F 57.2 °F 60% 30.01 in 10.0 mi Calm Calm - N/A   Clear
6:34 PM 71.6 °F 57.2 °F 60% 30.01 in 10.0 mi Calm Calm - N/A   Clear
6:53 PM 71.6 °F 57.2 °F 60% 30.01 in 10.0 mi Calm Calm - N/A   Scattered Clouds
7:14 PM 71.6 °F 59.0 °F 64% 30.01 in 10.0 mi Calm Calm - N/A   Scattered Clouds
7:34 PM 69.8 °F 60.8 °F 73% 30.01 in 10.0 mi Calm Calm - N/A   Clear
7:53 PM 69.8 °F 60.8 °F 73% 30.01 in 10.0 mi Calm Calm - N/A   Clear
8:14 PM 68.0 °F 60.8 °F 78% 30.01 in 10.0 mi Calm Calm - N/A   Clear
8:34 PM 66.2 °F 60.8 °F 83% 30.01 in 10.0 mi Calm Calm - N/A   Clear
8:53 PM 64.4 °F 60.8 °F 88% 30.02 in 10.0 mi Calm Calm - N/A   Clear
9:14 PM 64.4 °F 60.8 °F 88% 30.02 in 10.0 mi Calm Calm - N/A   Clear
9:34 PM 62.6 °F 59.0 °F 88% 30.02 in 10.0 mi Calm Calm - N/A   Clear
9:53 PM 62.6 °F 59.0 °F 88% 30.02 in 10.0 mi Calm Calm - N/A   Clear
10:14 PM 60.8 °F 57.2 °F 88% 30.02 in 10.0 mi Calm Calm - N/A   Clear
10:33 PM 60.8 °F 57.2 °F 88% 30.03 in 10.0 mi Calm Calm - N/A   Clear
10:53 PM 60.8 °F 57.2 °F 88% 30.03 in 10.0 mi Calm Calm - N/A   Clear
11:13 PM 60.8 °F 57.2 °F 88% 30.04 in 10.0 mi Calm Calm - N/A   Clear
11:33 PM 60.8 °F 57.2 °F 88% 30.04 in 10.0 mi Calm Calm - N/A   Clear
11:54 PM 57.2 °F 55.4 °F 94% 30.04 in 10.0 mi Calm Calm - N/A   Clear